Voltar ao catálogo

STARLINK-36428

AtivoComunicaçõesVLEO
NORAD 67362·PAYLOAD·🇺🇸 United States

Lançado Jan 9, 2026 de Cape Canaveral Space Force Station

Loading…

Próximas Passagens (próximas 24 horas)

TLE

AtualizadoSource: CelesTrak SupGP

Época: Sep 14, 2026, 21:46 UTC

1 67362C 26003AE  26257.90743056  .00038851  00000+0  14075-2 0  2571
2 67362  42.9994 238.3540 0001212 257.3384  97.6892 15.27552056    16

Acompanhe STARLINK-36428 em tempo real com AllMySat

Download on the App Store